[Iaude] MPEC N30: 2024 NG [a=1.38,e=0.32,i=1.4,H=26.3]
    mpec at cfa.harvard.edu 
    mpec at cfa.harvard.edu
       
    Thu Jul  4 10:01:57 EDT 2024
    
    
  
M.P.E.C. 2024-N30                                  Issued 2024 July 4, 14:00 UT
     The Minor Planet Electronic Circulars contain information on unusual
         minor planets, routine data on comets and natural satellites,
         and occasional editorial announcements.  They are published
    on behalf of Division F of the International Astronomical Union by the
          Minor Planet Center, Smithsonian Astrophysical Observatory,
                          Cambridge, MA 02138, U.S.A.
			  
             Prepared using the Tamkin Foundation Computer Network
                              MPC at CFA.HARVARD.EDU
            URL https://www.minorplanetcenter.net/    ISSN 1523-6714
                                    2024 NG                                     
Observations:
     K24N00G* C2024 07 01.39362317 07 45.503+05 22 50.37         21.46wXEN030F51
     K24N00G  C2024 07 01.40312017 07 43.907+05 23 55.71         21.26wXEN030F51
     K24N00G  C2024 07 01.43052217 07 39.345+05 27 04.58         20.98wXEN030F51
     K24N00G  C2024 07 01.52855517 07 24.081+05 38 22.47         21.48GVEN030F51
     K24N00G  C2024 07 01.52920017 07 23.983+05 38 27.52         21.05GVEN030F51
     K24N00G KC2024 07 02.18633917 06 19.71 +06 58 01.3          21.6 GVEN030H21
     K24N00G KC2024 07 02.19193217 06 18.78 +06 58 43.5          21.8 GVEN030H21
     K24N00G KC2024 07 02.19752417 06 17.77 +06 59 28.1          21.4 GVEN030H21
     K24N00G KB2024 07 03.91046217 02 36.67 +11 06 44.6                VEN030204
     K24N00G HB2024 07 03.94584717 02 29.41 +11 12 31.5          21.3 GVEN030204
Observer details:
204 Schiaparelli Observatory.  Observer L. Buzzi.  0.84-m f/3.5 reflector +
    CMO.
F51 Pan-STARRS 1, Haleakala.  Observers J. Herman, T. Lowe, P. Minguez, A.
    Schultz, I. Smith.  Measurers K. Chambers, T. de Boer, J. Fairlamb, H.
    Gao, M. Huber, C.-C. Lin, E. Magnier, Y. Ramanjooloo, R. Wainscoat, R.
    Weryk.  1.8-m Ritchey-Chretien + CCD.
H21 Astronomical Research Observatory, Westfield.  Observer R. Holmes.
    Measurers T. Linder, R. Holmes, L. Horn.  0.76-m f/3.0 astrograph + CCD.
Orbital elements:
2024 NG                                                  Earth MOID = 0.0117 AU
Epoch 2024 Mar. 31.0 TT = JDT 2460400.5                 MPC                     
M 272.03573              (2000.0)            P               Q                  
n   0.61014003     Peri.  165.65050     +0.92857683     +0.37112616             
a   1.3767329      Node   172.56201     -0.34292716     +0.86128501             
e   0.3225528      Incl.    1.42984     -0.14193669     +0.34706412             
P   1.62           H   26.35          G   0.15           U   8                  
Residuals in seconds of arc
240701 F51  0.1-  0.0     240701 F51  0.2-  0.5+    240703 204  0.1+  0.1-
240701 F51  0.0   0.0     240702 H21  0.2-  0.3+    240703 204  0.1-  0.1+
240701 F51  0.2+  0.0     240702 H21  0.2+  0.3-
240701 F51  0.1-  0.0     240702 H21 (0.6-  1.5+)
Ephemeris:
2024 NG                  a,e,i = 1.38, 0.32, 1                   q = 0.9327
Date    TT    R. A. (2000) Decl.     Delta      r    Elong.  Phase     V
2024 06 04    17 27 34.1 -13 45 43   0.1787  1.1895   167.3    10.8    23.7
...
2024 06 19    17 20 55.2 -07 45 17   0.1047  1.1165   162.8    15.6    22.5
...
2024 06 27    17 13 55.1 -01 08 45   0.07083 1.0796   152.1    26.2    22.0
...
2024 07 03    17 04 41.7 +08 49 22   0.04783 1.0534   139.3    39.0    21.4
2024 07 04    17 02 24.1 +11 23 12   0.04428 1.0492   136.3    42.0    21.3
2024 07 05    16 59 43.7 +14 22 00   0.04085 1.0450   133.0    45.3    21.2
...
2024 07 11    16 20 57.5 +47 13 10   0.02488 1.0211    99.6    79.0    21.1
...
2024 07 19    06 38 38.6 +61 38 11   0.03261 0.9925    42.8   135.9    25.2
...
2024 08 03    05 49 39.7 +32 36 45   0.08926 0.9523    43.8   132.5    27.0
A. U. Tomatic                (C) Copyright 2024 MPC           M.P.E.C. 2024-N30
    
    
More information about the Iaude
mailing list